Terminal Aerodrome Forecast
Issued by NWS

Home | Current Version | Previous Version | Text Only | Print | Product List | Glossary On
Versions: 1 2 3 4 5 6 7 8 9 10 11 12 13 14 15 16 17 18 19 20 21 22 23 24 25 26 27 28 29 30 31 32
000
FTUS42 KJAX 271041 AAC
TAFCRG
TAF AMD
KCRG 271041Z 2711/2806 25008KT P6SM SCT012 BKN035
     FM271500 23012KT P6SM VCSH SCT010 BKN020
     FM271800 25015G25KT 5SM -SHRA VCTS SCT015 OVC025CB
     FM272100 28014G22KT P6SM VCSH SCT025 BKN040
     FM280000 29012KT P6SM SCT040 BKN250
     FM280300 32012KT P6SM SKC=

USA.gov is the U.S. government's official web portal to all federal, state and local government web resources and services.